Location: Kergonan
(48.2337°N, 4.5518°W)
Time: 23:06:49
(UTC+00:00)

SL-8 Rocket - Pass Details

Date: 18 January 2020
Orbit: 956 x 991 km, 82.9° (Epoch: 18 February)

Event Time Altitude Azimuth Distance (km) Brightness Sun altitude
Rises 06:29:33 0° 349° (N) 3,685 6.8 -15.1°
Reaches altitude 10° 06:32:04 10° 349° (NNW) 2,729 6.1 -14.6°
Maximum altitude 06:38:18 78° 264° (W) 993 3.9 -13.6°
Drops below altitude 10° 06:44:27 10° 179° (S) 2,688 6.5 -12.7°
Sets 06:46:56 0° 178° (S) 3,627 7.2 -12.3°
